Flag for U.S.A. Weather past 2 weeks in Providence, Rhode Island, U.S.A.

Now
77 °F

Partly sunny.


Feels Like: 79 °F
Forecast: 67 / 88 °F
Wind: 9 mph from West

Location: Green State Airport

Current Time: Aug 31, 2015 at 9:31:48 AM

Latest Report: Aug 31, 2015 at 8:51 AM


Visibility: 10 mi

Pressure: 29.99 "Hg

Humidity: 77%

Dew point: 69 °F

Location of ProvidenceLocation

Historic Weather in Providence — Graph

°F

Providence temperature yesterday

Maximum temperature yesterday: 88 °F (at 3:51 PM)
Minimum temperature yesterday: 67 °F (at 4:51 AM)
Average temperature yesterday: 77 °F

Past Weeks' High & Low Weather Summary

 TemperatureHumidityPressure
High90 °F (Aug 16, 3:51 PM)97% (Aug 19, 11:51 PM)30.21 "Hg (Aug 19, 11:51 PM)
Low58 °F (Aug 28, 5:51 AM)36% (Aug 30, 3:51 PM)29.84 "Hg (Aug 25, 4:51 PM)
Average75 °F73%30.02 "Hg
* Reported Aug 16 7:51 AM — Aug 31 7:51 AM, Providence, Weather by CustomWeather, © 2015

Note: Actual official high and low records may vary slightly from our data, if they occured in-between our weather recording intervals... More about our weather records

Advertising

Providence weather history for previous 24 hours

 ConditionsComfort  
Time TempWeatherWind HumidityBarometerVisibility
7:51 AM
Mon, Aug 31
75 °FBroken clouds.10 mph82%29.99 "Hg10 mi
6:51 AM71 °FPassing clouds.7 mph90%29.98 "Hg10 mi
5:51 AM71 °FPassing clouds.7 mph90%29.98 "Hg10 mi
4:51 AM71 °FClear.6 mph90%29.98 "Hg9 mi
3:51 AM71 °FClear.5 mph90%29.98 "Hg10 mi
2:51 AM71 °FClear.6 mph90%30.00 "Hg10 mi
1:51 AM72 °FClear.5 mph87%30.01 "Hg10 mi
12:51 AM73 °FClear.5 mph81%30.01 "Hg10 mi
11:51 PM
Sun, Aug 30
74 °FPassing clouds.6 mph79%30.02 "Hg10 mi
10:51 PM75 °FOvercast.7 mph76%30.03 "Hg10 mi
9:51 PM76 °FMostly cloudy.7 mph74%30.03 "Hg10 mi
8:51 PM77 °FLight rain. Mostly cloudy.9 mph71%30.03 "Hg10 mi
7:51 PM78 °FSunny.9 mph66%30.01 "Hg10 mi
6:51 PM80 °FBroken clouds.10 mph58%30.00 "Hg10 mi
5:51 PM82 °FBroken clouds.15 mph56%30.00 "Hg10 mi
4:51 PM87 °FBroken clouds.7 mph40%30.00 "Hg10 mi
3:51 PM88 °FBroken clouds.10 mph36%30.01 "Hg10 mi
2:51 PM87 °FBroken clouds.7 mph40%30.03 "Hg10 mi
1:51 PM87 °FScattered clouds.6 mph39%30.04 "Hg10 mi
12:51 PM85 °FBroken clouds.13 mph43%30.06 "Hg10 mi
11:51 AM85 °FScattered clouds.12 mph42%30.08 "Hg10 mi
10:51 AM83 °FSunny.9 mph53%30.08 "Hg10 mi
9:51 AM78 °FSunny.7 mph64%30.09 "Hg10 mi
Weather by CustomWeather, © 2015

See weather overviewHow to use our weather pages